Location: Kellogg
(38.0159°N, 90.0546°W)
Time: 15:32:27
(UTC+00:00)

Transit 2A - Pass Details

Date: 18 September 2024
Orbit: 590 x 960 km, 66.7° (Epoch: 15 October)

Event Time Altitude Azimuth Distance (km) Brightness Sun altitude
Rises 09:54:33 0° 321° (NW) 3,595 9.3 -22.1°
Enters shadow 09:55:59 - 317° (NW) 3,093 8.9 -21.8°
Exits shadow 10:09:29 - 185° (S) 3,093 8.9 -19.3°
Sets 10:09:59 0° 183° (S) 3,270 9.1 -19.2°
